Regional Weather Roundup
Issued by NWS Green Bay, WI

Home | Current Version | Previous Version | Graphics & Text | Print | Product List | Glossary Off
Versions: 1 2 3 4 5 6 7 8 9 10 11 12 13 14 15 16 17 18 19 20 21 22 23 24 25 26 27 28 29 30 31 32 33 34 35 36 37 38 39 40 41 42 43 44 45 46 47 48 49 50

000
ASUS43 KGRB 280911
RWRGRB

NORTH-CENTRAL AND NORTHEAST WISCONSIN REGIONAL WEATHER ROUNDUP
NATIONAL WEATHER SERVICE GREEN BAY WI
400 AM CDT TUE MAR 28 2017

WIZ005-009-010>012-018-019-281000-
NORTH CENTRAL WISCONSIN

CITY           SKY/WX    TMP DP  RH WIND       PRES   REMARKS
IRONWOOD       CLEAR     23  22  96 CALM      30.08R
MANITOWISH WTR FOG       23  23 100 CALM      30.06R VSB 3/4
ARBOR VITAE    CLEAR     26  24  95 N3        30.05R FOG
EAGLE RIVER    CLEAR     25  25 100 CALM      30.05R
LAND O LAKES   CLEAR     24  23  96 CALM      30.07R
RHINELANDER    CLEAR     24  24 100 CALM      30.05S
PHILLIPS       CLEAR     23  23 100 CALM      30.05S
ANTIGO         FOG       29  29 100 CALM      30.05R VSB 3/4
TOMAHAWK       CLEAR     23  22  96 CALM      30.06S
MERRILL        CLEAR     25  25 100 CALM      30.06S
$$

WIZ013-073-281000-
NORTHEAST WISCONSIN

CITY           SKY/WX    TMP DP  RH WIND       PRES   REMARKS
IRON MOUNTAIN  CLEAR     24  21  88 NW3       30.03S
MARINETTE        N/A    N/A N/A N/A MISG        N/A
OCONTO         PTCLDY    28  28  99 CALM      30.06R
$$

WIZ017-030-035>037-045-281000-
CENTRAL WISCONSIN

CITY           SKY/WX    TMP DP  RH WIND       PRES   REMARKS
MEDFORD        CLEAR     27  26  99 CALM      30.04S FOG
WAUSAU         MOCLDY    29  28  96 CALM      30.04S
MOSINEE        CLOUDY    34  34 100 CALM      30.05S
MARSHFIELD     PTCLDY    30  28  92 N3        30.03S FOG
WISC RAPIDS    CLOUDY    41  39  93 E3        30.06S
STEVENS POINT  CLOUDY    37  37 100 CALM      30.05S
WAUPACA        CLOUDY    42  38  86 CALM      30.06S
SHAWANO        FOG       32  30  95 CALM      30.06S VSB 3/4
CLINTONVILLE   FOG       34  34 100 CALM      30.06R VSB 1
WAUTOMA        CLOUDY    41  38  89 NE5       30.06S
$$

WIZ038-039-048-051-281000-
FOX VALLEY

CITY           SKY/WX    TMP DP  RH WIND       PRES   REMARKS
NWS GREEN BAY  PTCLDY    35  35 100 CALM      30.05S
APPLETON       CLOUDY    37  37 100 CALM      30.04S
OSHKOSH        CLOUDY    40  37  89 N5        30.04S
FOND DU LAC    CLOUDY    40  36  86 N5        30.04S
$$

WIZ022-050-052-281000-
EAST CENTRAL WISCONSIN

CITY           SKY/WX    TMP DP  RH WIND       PRES   REMARKS
EPHRAIM        FAIR      32  32 100 N7        30.03S
WASHINGTON ISL FOG       30  29  99 N3        30.04R VSB 3/4
STURGEON BAY   CLEAR     33  33 100 NW3       30.03R
MANITOWOC      CLOUDY    39  37  92 N6        30.05R
SHEBOYGAN      CLOUDY    39  36  89 NW6       30.04R
$$

LMZ563-521-522-541>543-281000-
LAKESHORE

STATION/POSITION TIME  TEMP    WIND        PRES    VSBY  WAVE
                       AIR SEA DIR/SP/G                  HT/PER
                 (UTC) (F)     (DEG/KT/KT) (MB)    (MI)  (FT/S)
SHEBOYGAN LKSHOR 0900   39     340/  9/ 10 1017.5R
KEWAUNEE LKSHORE 0848   38     330/  3/  7 1016.8R
NORTHPORT PIER   0840   33      CALM  /  3 1017.6R
CHAMBERS ISLAND  0840   31      CALM  /  1 1016.9S
MENOMINEE LKSHOR 0848   33     280/  3/  4 1016.8R
$$




USA.gov is the U.S. government's official web portal to all federal, state and local government web resources and services.